Location: Aldenham
(51.6667°N, 0.3500°W)
Time: 08:26:46
(UTC+00:00)

Explorer 7 - Pass Details

Date: 19 February 2026
Orbit: 430 x 541 km, 50.2° (Epoch: 12 March)

Event Time Altitude Azimuth Distance (km) Brightness Sun altitude
Rises 17:40:21 0° 270° (W) 2,477 12.2 -3.4°
Reaches altitude 10° 17:42:28 10° 268° (W) 1,620 11.0 -3.7°
Maximum altitude 17:46:06 71° 185° (S) 511 6.8 -4.2°
Drops below altitude 10° 17:49:55 10° 101° (ESE) 1,688 8.7 -4.8°
Enters shadow 17:51:04 - 100° (E) 2,155 9.3 -5.0°
Sets 17:52:09 0° 99° (E) 2,592 - -5.1°
